Simultaneous Nadir Overpasses (SNOs) Predictions

Prediction of SNOs between AQUA and METOP-B Satellite Orbit:

Table of predicted SNOs for the next 14.0 days since TLE Epoch: 4/5/2014
Index Date (AQUA) Time (AQUA) Lat,Lon (AQUA) SZA (AQUA ) Date (METOP-B) Time (METOP-B) Lat,Lon (METOP-B) SZA (METOP-B ) Distance(km) Time Diff (sec)
1 04/05/2014 23:09:01 73.72,-172.58 67.40 04/05/2014 23:07:59 73.74,-172.59 67.43 2.64 62
2 04/05/2014 23:58:28 -73.80, -5.11 112.53 04/05/2014 23:58:40 -73.81, -5.11 112.52 0.84 12
3 04/06/2014 00:48:02 74.13, 161.78 67.82 04/06/2014 00:49:12 74.17, 163.10 67.80 40.42 70
4 04/08/2014 18:43:14 73.76,-106.21 66.37 04/08/2014 18:42:20 73.74,-106.19 66.36 2.10 54
5 04/08/2014 19:32:41 -73.83, 61.26 113.56 04/08/2014 19:33:01 -73.81, 61.30 113.59 3.14 20
6 04/08/2014 20:22:21 74.48,-132.59 67.12 04/08/2014 20:23:27 74.45,-129.75 67.01 84.69 66
7 04/11/2014 14:17:25 73.75, -39.74 65.32 04/11/2014 14:16:40 73.77, -39.70 65.35 3.10 45
8 04/11/2014 15:06:52 -73.82, 127.74 114.62 04/11/2014 15:07:22 -73.80, 127.69 114.64 3.06 30
9 04/14/2014 09:51:34 73.75, 26.72 64.29 04/14/2014 09:51:00 73.75, 26.66 64.30 1.78 34
10 04/14/2014 10:41:01 -73.82,-165.80 115.65 04/14/2014 10:41:41 -73.83,-165.83 115.64 1.38 40
11 04/17/2014 04:36:02 -73.03, -72.98 117.46 04/17/2014 04:34:57 -72.97, -76.00 117.41 98.33 65
12 04/17/2014 05:25:43 73.75, 93.16 63.29 04/17/2014 05:25:20 73.77, 93.12 63.31 2.02 23
13 04/17/2014 06:15:10 -73.82, -99.35 116.65 04/17/2014 06:16:01 -73.85, -99.36 116.63 3.00 51




NCC Satellite Simultaneous Nadir Overpasses (SNOs) Prediction Service
